Regional Weather Roundup
Issued by NWS

Home | Current Version | Previous Version | Text Only | Print | Product List | Glossary On
Versions: 1 2 3 4 5 6 7 8 9 10 11 12 13 14 15 16 17 18 19 20 21 22 23 24 25 26 27 28 29 30 31 32 33 34 35 36 37 38 39 40 41 42 43 44 45 46 47 48 49 50
000
ASUS43 KMKX 240211
RWRWI

WISCONSIN REGIONAL WEATHER ROUNDUP
NATIONAL WEATHER SERVICE MILWAUKEE/SULLIVAN WI
900 PM CDT TUE SEP 23 2014

NOTE: "FAIR" INDICATES FEW OR NO CLOUDS BELOW 12,000 FEET WITH NO
SIGNIFICANT WEATHER AND/OR OBSTRUCTIONS TO VISIBILITY.

WIZ001-002-006>008-014>016-023>028-240300-
NORTHWEST WISCONSIN

CITY           SKY/WX    TMP DP  RH WIND       PRES   REMARKS
SUPERIOR ARPT  CLEAR     50  50  99 CALM      30.16S FOG
ASHLAND        PTCLDY    51  49  92 S3        30.20R
HAYWARD        PTCLDY    57  53  86 S5        30.21R
SIREN          PTCLDY    61  53  75 SE3       30.18S
CUMBERLAND     PTCLDY    59  52  77 SE5       30.20S
RICE LAKE      PTCLDY    59  52  77 SE5       30.21S
CHETEK         PTCLDY    59  53  80 SE5       30.21R
LADYSMITH      MOCLDY    58  52  80 SE3       30.23S
EAU CLAIRE     PTCLDY    62  51  67 SE6       30.20S
MENOMONIE      PTCLDY    59  53  80 SE6       30.20S
NEW RICHMOND   MOCLDY    60  51  73 SE7       30.18S
OSCEOLA        MOCLDY    63  52  67 SE6       30.19S
$$

WIZ003>005-009-010-017-018-240300-
NORTH CENTRAL WISCONSIN

CITY           SKY/WX    TMP DP  RH WIND       PRES   REMARKS
MANITOWISH WTR CLEAR     50  50 100 CALM      30.24R
ARBOR VITAE    CLEAR     55  51  88 CALM      30.25S
WOODRUFF       CLEAR     55  51  88 CALM      30.25S
RHINELANDER    CLEAR     52  49  89 CALM      30.26S
EAGLE RIVER    CLEAR     50  49  98 CALM      30.25S
LAND O LAKES   CLEAR     48  48  99 CALM      30.25S
PHILLIPS       PTCLDY    55  51  86 CALM      30.23S
TOMAHAWK       PTCLDY    51  48  92 CALM      30.25S
MEDFORD        PTCLDY    54  50  86 S3        30.24S
MERRILL        PTCLDY    51  49  92 CALM      30.25S
$$

WIZ029-030-035-036-043>047-240300-
CENTRAL WISCONSIN

CITY           SKY/WX    TMP DP  RH WIND       PRES   REMARKS
WAUSAU         PTCLDY    58  52  80 E5        30.24R
MOSINEE        CLEAR     55  54  94 SE3       30.26S
MARSHFIELD     PTCLDY    57  52  83 S3        30.24S
STEVENS POINT  MOCLDY    53  50  91 CALM      30.26S
WAUPACA        CLEAR     57  55  93 CALM      30.26S
WAUTOMA        MOCLDY    53  52  97 CALM      30.27R
WISC RAPIDS    PTCLDY    56  52  86 CALM      30.26S
CAMP DOUGLAS   FOG       50  50 100 SE2       30.24S VSB 1/2
$$

WIZ011>013-019>022-031-037>040-048>050-240300-
NORTHEAST WISCONSIN

CITY           SKY/WX    TMP DP  RH WIND       PRES   REMARKS
ANTIGO         CLEAR     54  51  87 S5        30.27S
SHAWANO        CLEAR     63  53  71 S3        30.26S
OCONTO         CLEAR     59  56  91 S3        30.27R
STURGEON BAY   CLEAR     57  52  82 S9        30.29R
GREEN BAY      CLEAR     58  54  86 SE3       30.28R
MANITOWOC      CLEAR     58  56  93 CALM      30.30R
APPLETON       PTCLDY    61  52  72 CALM      30.27R
CLINTONVILLE   CLEAR     55  52  88 CALM      30.26R
OSHKOSH        CLEAR     52  50  93 S5        30.27R
$$

WIZ032>034-041-042-053>061-240300-
SOUTHWEST WISCONSIN

CITY           SKY/WX    TMP DP  RH WIND       PRES   REMARKS
LA CROSSE      MOCLDY    63  52  67 E6        30.21S
SPARTA         PTCLDY    55  53  92 CALM      30.24S
VIROQUA        MOCLDY    61  49  63 SE7       30.24R
BOSCOBEL       CLOUDY    56  53  90 CALM      30.24S
PRAIRIE DU CHI CLOUDY    61  50  66 E7        30.22S
PLATTEVILLE    MOCLDY    61  49  66 SE6       30.25S
$$

WIZ056-057-062-063-064-067-068-240300-
SOUTH CENTRAL WISCONSIN

CITY           SKY/WX    TMP DP  RH WIND       PRES   REMARKS
REEDSBURG      PTCLDY    57  53  86 CALM      30.25S
BARABOO/DELLS  PTCLDY    56  50  81 CALM      30.26S
LONE ROCK      PTCLDY    57  50  77 E5        30.25S
MINERAL POINT  MOCLDY    61  46  59 E3        30.25S
MADISON        PTCLDY    56  52  86 CALM      30.26S
MIDDLETON      PTCLDY    54  53  97 CALM      30.27S
WATERTOWN      PTCLDY    54  51  90 CALM      30.27S
MONROE         PTCLDY    61  50  67 SE9       30.26S
JANESVILLE     CLEAR     57  50  77 SE6       30.27S
$$

WIZ051-052-058>065-066-070>072-240300-
SOUTHEAST WISCONSIN

CITY           SKY/WX    TMP DP  RH WIND       PRES   REMARKS
MILWAUKEE      CLEAR     59  47  64 S6        30.29S
WAUKESHA       CLEAR     59  48  67 S7        30.30R
MILWAUKEE/TIMM CLEAR     59  41  51 S6        30.30R
RACINE         CLEAR     61  51  70 S6        30.31S
BURLINGTON     CLEAR     53  49  85 CALM      30.30R
KENOSHA        CLEAR     55  48  77 S3        30.30S
FOND DU LAC    CLEAR     57  51  80 SE6       30.28R
SHEBOYGAN      CLEAR     56  49  77 CALM      30.29R
WEST BEND      CLEAR     54  46  76 CALM      30.29R
JUNEAU         PTCLDY    57  50  77 SE5       30.29R
$$

LSZ147-162-240300-
LAKE SUPERIOR

STATION/POSITION TIME  TEMP    WIND        PRES    WAVE
                       AIR SEA DIR/SP/G            HT/PER
                 (UTC) (F)     (DEG/KT/KT) (MB)    (FT/S)
W MID LAKE BUOY  0150   54 49  130/  8/  8 1022.1S   0
DEVILS ISLAND    0200   63     150/ 11/ 13 1022.1R
PORT WING        0140   59     120/  2/  3 1021.7R
SAXON HARBOR     0100   60     190/  5/  6 1022.0R
$$

LMZ867-665-643>646-240300-
LAKE MICHIGAN

STATION/POSITION TIME  TEMP    WIND        PRES    WAVE
                       AIR SEA DIR/SP/G            HT/PER
                 (UTC) (F)     (DEG/KT/KT) (MB)    (FT/S)
CHAMBERS ISLAND  0100   60     140/  4/ 10 1025.1R
N MID LAKE BUOY  0150   59 58  200/ 10/ 12 1025.6R   1/ 3
NORTHPORT PIER   0200   58     180/  4/ 12 1025.1R
SISTER BAY       0142          150/ 10/ 12   N/A
ALGOMA LAKESHORE 0110          220/  7/  8   N/A
KEWAUNEE LAKESHO 0100   58     180/ 10/ 12 1024.4R
SHEBOYGAN LAKESH 0200   56 53  170/  8/  8 1026.2R
PORT WASHINGTON  0100   57     190/  3/  5 1026.1
ATWATER BUOY     0200   59     170/  8/ 10 1026.7R
S MID LAKE BUOY  0150   62 62  130/  6/  6 1026.4R   0
KENOSHA   LAKESH 0200   61     180/  7/  9 1025.4S
$$

TC  - TEMPERATURE IN CELSIUS
VSB - VISIBILITY IN STATUTE MILES
WCI - WIND CHILL INDEX
HX  - HEAT INDEX



USA.gov is the U.S. government's official web portal to all federal, state and local government web resources and services.